ZY 3 04

导读

ZY 3 04即资源三号04星,是中国于2025年12月16日在太原卫星发射中心,通过长征四号乙运载火箭成功发射的高分辨率立体测图业务卫星。该星配置三线阵立体测绘相机等载荷,可获取高精度影像,将与同系列02、03星组网,缩短重访周期,为测绘生产、自然资源监管、国土空间规划等领域提供可靠数据支撑。

Basic Information
目录编号:
67131
目录名称:
ZY 3 04
国际标识:
2025-300A
轨道中心:
EARTH
卫星名称:
ZY 3 04
卫星全名:
ZY 3 04
卫星状态:
在轨 (已飞行223 天)
发射日期:
2025-12-16 UTC
国别 :
中国 (CN)
星等 :
--
Orbit Information
数据来源 国际轨道数据 AOE轨道数据
星历时间 2026-07-27T13:18:39+0800
18小时前
查看轨道信息
2026-07-23T01:00:00+0800
5天前
查看轨道信息
半长轴 6879.806km 6879.923km
偏心率 0.0007297 0.0007215
轨道倾角 97.472° 97.472°
近地点辐角 164.737° 179.358°
升交点赤经 285.823° 281.345°
平近点角 195.409° 319.588°
近地点 496.648km 496.822km
远地点 506.69km 506.75km
周期 94.651分钟 94.653分钟
每日圈数 15.213828 15.213441
Detailed Information
使用方式:
暂无
2D Orbit Map
3D Orbit Map
Orbit Altitude Analysis Chart
Orbit Inclination Analysis Chart
Orbit Comprehensive Analysis Chart
View Comprehensive Chart